Other Surface Observations
Issued by NWS Tucson, AZ

Home | Current Version | Previous Version | Text Only | Print | Product List | Glossary On
Versions: 1 2 3 4 5 6 7 8 9 10 11 12 13 14 15 16 17 18 19 20 21 22 23 24 25 26 27 28 29 30 31 32 33 34 35 36 37 38 39 40 41 42 43 44 45 46 47 48 49 50
000
SXUS55 KTWC 301115
OSOTWC

WEATHER ROUNDUP FOR SOUTHEAST ARIZONA
NATIONAL WEATHER SERVICE TUCSON AZ
415 AM MST FRI JAN 30 2015

AZZ504>506-514-301215-
LOCATION       SKY/WX    TMP DP  RH WIND       PRES   REMARKS
TUCSON         LGT RAIN  57  52  83 E12       29.97F
DAVIS-MONTHAN  LGT RAIN  55  54  94 E9        29.95F
CHILDRENS PARK N/A       56  54  92 SE6               PIMA CO DEQ
ALVERNON/22ND  N/A      N/A N/A N/A N/A               PIMA CO DEQ
CHERRY/GLENN   N/A      N/A N/A N/A N/A               PIMA CO DEQ
TANGERINE      N/A       55 N/A N/A SE5               PIMA CO DEQ
CONTL RANCH    N/A       57  55  93 SE7               PIMA CO DEQ
GRANT/1ST      N/A       57  54  91 SE5               PIMA CO DEQ
CRAYCROFT/22ND N/A      N/A N/A N/A N/A               PIMA CO DEQ
GOLFLINKS/KOLB N/A       56  54  92 E4                PIMA CO DEQ
AJO/12TH       N/A       57  55  92 SE8               PIMA CO DEQ
SAGUARO EAST   N/A      N/A N/A N/A N/A               PIMA CO DEQ
FAIRGROUNDS    N/A       54 N/A N/A E13               PIMA CO DEQ
SAGUARO        N/A       57  54  91 NE5G11            *SABINO CYN
SAN CARLOS     N/A       50  46  86 SE11G19           *SAN CARLOS
GREEN VALLEY   N/A       54  53  98 W3                PIMA CO DEQ
HORSE CAMP CYN N/A       46  43  90 E25G34            *ARAVAIPA CYN
RINCON MTNS    N/A       40  40  100 SE5G12           *NR MANNING CAMP
$$

AZZ509>511-301215-
LOCATION       SKY/WX    TMP DP  RH WIND       PRES   REMARKS
SAFFORD        RAIN      48  45  89 S9        30.11F
STRAY HORSE    N/A       34  34  98 E5G10             *
TRAIL CABIN    N/A       39  38  97 E12G21            *N OF GRANVILLE
BLACK HILLS    N/A       48  46  93 SE17G26           *N OF FT THOMAS
DRY LAKE       N/A       37  37  100 SE14G26          *NATANES MTNS
NOON CREEK     N/A       43  40  88 SW5G17            *PINALENO MTNS
COLUMBINE      N/A       38  38  100 S10G21           *PINALENO MTNS
GUTHRIE        N/A       38  38  100 E15G22           *SW OF GUTHRIE
$$

AZZ502-503-513-301215-
LOCATION       SKY/WX    TMP DP  RH WIND       PRES   REMARKS
NOGALES        LGT RAIN  54  51  90 SE10      30.00F
SELLS          N/A       56  55  98 SE9G15            *
SASABE         N/A       53  53  100 CALM             *ALTAR VLY
HOPKINS        N/A       44  44  100 E13G30           *SANTA RITA MTNS
CARR CYN       N/A       51  47  85 SE6G20            *W OF HEREFORD
$$

AZZ507-508-512-301215-
LOCATION       SKY/WX    TMP DP  RH WIND       PRES   REMARKS
SIERRA VISTA   LGT RAIN  48  48 100 SE9       30.04F
DOUGLAS        LGT RAIN  49  47  93 VRB3      30.07F
EMPIRE MTNS    N/A       50  49  98 S6G11             *LAS CIENEGAS NCA
MULESHOE RANCH N/A       48  44  85 E12G25            *PRESERVE
HEADQUARTERS   N/A       43  41  93 NE10G23           *CHIRICAHUA MTNS
$$

.............................NOTES.............................
THIS IS AN AUTOMATED COLLECTIVE WITH MINIMAL QUALITY CONTROL.
PIMA CO DEQ SITES HAVE NONSTANDARD WIND SENSOR HEIGHTS.
PIMA CO DEQ SITES DO NOT REPORT WIND GUSTS.
* INDICATES WIND SENSORS LOCATED AT 20 FEET INSTEAD OF 33 FEET.
..............................KEY..............................
SKY/WX - SKY CONDITION/WEATHER
TMP    - TEMPERATURE IN FAHRENHEIT
DP     - DEWPOINT IN FAHRENHEIT
RH     - RELATIVE HUMIDITY IN PERCENT
WIND   - DIRECTION AND SPEED IN MILES PER HOUR (MPH)
VRB    - VARIABLE WIND DIRECTION
PRES   - MEAN SEA LEVEL PRESSURE IN INCHES OF MERCURY
         F - FALLING PRESSURE   R - RISING PRESSURE
         S - STEADY PRESSURE
VSB    - VISIBILITY IN MILES
HX     - HEAT INDEX IN FAHRENHEIT
WCI    - WIND CHILL INDEX IN FAHRENHEIT
N/A    - NOT AVAILABLE
AFB    - AIR FORCE BASE
         DAVIS-MONTHAN IS DAVIS-MONTHAN AIR FORCE BASE
CYN    - CANYON
MTNS   - MOUNTAINS
NCA    - NATIONAL CONSERVATION AREA
NR     - NEAR
VLY    - VALLEY
CONTL  - CONTINENTAL
PIMA CO DEQ - PIMA COUNTY DEPT OF ENVIRONMENTAL QUALITY



USA.gov is the U.S. government's official web portal to all federal, state and local government web resources and services.